Location: *
(46.1833°N, 22.7667°E)
Time: 07:20:13
(UTC+00:00)

CZ-2C R/B - Pass Details

Date: 17 September 2019
Orbit: 639 x 705 km, 98.4° (Epoch: 15 October)

Event Time Altitude Azimuth Distance (km) Brightness Sun altitude
Rises 17:47:35 0° 16° (NNE) 2,985 7.1 -12.8°
Reaches altitude 10° 17:49:50 10° 20° (NNE) 2,061 6.2 -13.1°
Maximum altitude 17:54:17 64° 102° (ESE) 717 3.6 -13.9°
Drops below altitude 10° 17:58:40 10° 184° (S) 2,027 6.0 -14.6°
Sets 18:00:52 0° 187° (S) 2,930 6.9 -15.0°
